CAPE
237 611 934 1011 1117 1234 1293 1303 1220 1137 1097 1092 1077 893 809 727 654 543 374 200 0 0 0 0 0 0 0 7 15 17 15 57
359 428 709 898 1110 1227 1029 1318 1264 1205 1175 1152 1073 899 770 629 517 428 275 108 0 0 0 0 0 0 0 0 0 0 0 0
425 445 401 618 858 1134 934 1337 1336 1308 1326 1256 1097 852 712 609 367 316 181 66 0 0 0 0 0 0 0 0 0 0 0 0
598 522 425 373 612 960 1193 1333 1417 1392 1357 1264 974 697 535 456 333 228 74 2 0 0 0 0 0 0 0 0 0 0 0 0
727 607 499 437 501 599 885 1174 1146 1166 1079 945 796 646 519 342 180 73 11 0 0 0 0 0 0 0 0 0 0 0 0 0
755 704 656 616 612 546 606 737 811 825 902 857 739 503 291 174 72 9 0 0 0 0 0 0 0 0 0 0 0 0 0 0
842 794 796 759 843 709 609 581 661 647 683 681 664 522 385 133 17 0 0 0 0 0 0 0 0 0 0 0 0 0 0 0
937 885 772 746 793 706 635 595 569 532 564 600 609 544 336 110 17 0 0 0 0 0 0 0 0 0 0 0 0 0 0 0
847 1003 794 797 700 647 527 458 515 567 563 510 459 380 222 65 37 4 0 0 0 0 0 0 0 0 0 0 0 0 0 0
840 1043 911 830 729 602 661 620 526 451 400 375 318 331 301 47 8 1 0 0 0 0 0 0 0 0 0 0 0 0 0 0
616 780 1006 1101 1016 853 810 804 721 701 654 591 580 475 402 283 97 44 0 0 0 0 0 0 0 0 0 0 0 0 0 0
633 664 729 772 921 1033 1085 1056 1029 923 943 946 891 649 389 309 240 86 0 0 0 0 0 0 0 0 0 0 0 0 0 0
73 480 702 639 29 4 2 37 306 492 574 689 769 725 430 293 271 81 0 0 0 0 0 0 0 0 0 0 0 0 0 0
0 0 0 0 0 0 0 0 0 0 0 0 44 6 7 76 135 245 14 2 2 1 2 0 0 0 0 0 0 0 0 0
0 0 0 0 0 0 0 0 0 0 0 0 0 0 0 0 0 0 0 7 2 1 2 2 2 0 0 0 0 0 0 0
0 0 0 0 0 0 0 0 0 0 0 0 0 0 0 0 0 0 0 0 0 0 1 1 0 1 0 0 0 0 0 0
0 0 0 0 0 0 0 0 0 0 0 0 0 0 0 0 0 0 0 0 0 0 1 0 1 1 0 0 0 0 0 0
0 0 0 0 0 0 0 0 0 0 0 0 0 0 0 0 0 0 0 0 0 0 0 14 5 1 0 0 0 0 0 0
0 0 0 0 0 0 0 0 0 0 0 0 0 0 0 0 0 0 0 0 0 0 0 0 17 5 2 0 1 1 0 0
0 0 0 0 0 0 0 0 0 0 0 0 0 0 0 0 0 0 0 0 0 0 3 0 0 14 14 20 1 0 0 0
CIN
-434 -349 -274 -247 -238 -222 -211 -193 -190 -201 -196 -172 -173 -196 -211 -224 -210 -232 -254 -322 -65 -0 -0 -0 -0 -0 -0 -325 -192 -316 -274 -205
-395 -380 -299 -261 -223 -204 -254 -190 -181 -186 -178 -161 -172 -198 -203 -227 -243 -271 -289 -344 -0 -0 -0 -0 -0 -0 -0 -0 -0 -0 -0 -0
-388 -362 -380 -316 -252 -198 -236 -164 -155 -149 -126 -126 -152 -191 -196 -207 -273 -282 -320 -395 -0 -0 -0 -0 -0 -0 -0 -0 -0 -0 -0 -0
-333 -352 -364 -371 -277 -196 -151 -122 -104 -104 -98 -96 -132 -167 -198 -225 -269 -309 -435 -232 -0 -0 -0 -0 -0 -0 -0 -0 -0 -0 -0 -0
-319 -329 -350 -346 -306 -267 -201 -150 -148 -131 -125 -129 -153 -208 -252 -292 -323 -425 -568 -0 -0 -0 -0 -0 -0 -0 -0 -0 -0 -0 -0 -0
-308 -332 -310 -301 -282 -272 -244 -207 -177 -165 -159 -160 -164 -215 -269 -322 -376 -515 -0 -0 -0 -0 -0 -0 -0 -0 -0 -0 -0 -0 -0 -0
-288 -307 -269 -255 -221 -218 -221 -207 -173 -167 -148 -148 -141 -190 -245 -366 -492 -0 -0 -0 -0 -0 -0 -0 -0 -0 -0 -0 -0 -0 -0 -0
-263 -257 -255 -235 -194 -181 -181 -182 -185 -182 -175 -164 -154 -153 -216 -361 -513 -0 -0 -0 -0 -0 -0 -0 -0 -0 -0 -0 -0 -0 -0 -0
-252 -247 -229 -192 -192 -196 -226 -236 -195 -177 -185 -178 -171 -166 -246 -376 -403 -496 -0 -0 -0 -0 -0 -0 -0 -0 -0 -0 -0 -0 -0 -0
-299 -254 -228 -192 -186 -214 -188 -185 -204 -222 -219 -196 -188 -167 -179 -371 -434 -94 -0 -0 -0 -0 -0 -0 -0 -0 -0 -0 -0 -0 -0 -0
-320 -289 -203 -151 -133 -131 -120 -102 -109 -104 -108 -123 -114 -141 -149 -194 -350 -401 -0 -0 -0 -0 -0 -0 -0 -0 -0 -0 -0 -0 -0 -0
-267 -248 -227 -167 -89 -39 -28 -35 -32 -30 -17 -13 -14 -41 -84 -117 -179 -308 -0 -0 -0 -0 -0 -0 -0 -0 -0 -0 -0 -0 -0 -0
-429 -214 -145 -141 -452 -338 -0 -388 -171 -76 -32 -10 -4 -11 -40 -89 -106 -263 -0 -0 -0 -0 -0 -0 -0 -0 -0 -0 -0 -0 -0 -0
-0 -0 -0 -0 -0 -0 -0 -0 -0 -0 -0 -0 -193 -240 -223 -114 -91 -48 -76 -0 -0 -0 -0 -0 -0 -0 -0 -0 -0 -0 -0 -0
-0 -0 -0 -0 -0 -0 -0 -0 -0 -0 -0 -0 -0 -0 -0 -0 -0 -0 -0 -0 -0 -0 -0 -0 -0 -0 -0 -0 -0 -0 -0 -0
-0 -0 -0 -0 -0 -0 -0 -0 -0 -0 -0 -0 -0 -0 -0 -0 -0 -0 -0 -0 -0 -0 -0 -0 -0 -0 -0 -0 -0 -0 -0 -0
-0 -0 -0 -0 -0 -0 -0 -0 -0 -0 -0 -0 -0 -0 -0 -0 -0 -0 -0 -0 -0 -0 -1 -0 -0 -0 -0 -0 -0 -0 -0 -0
-0 -0 -0 -0 -0 -0 -0 -0 -0 -0 -0 -0 -0 -0 -0 -0 -0 -0 -0 -0 -0 -0 -0 -1 -3 -0 -0 -0 -0 -0 -0 -0
-0 -0 -0 -0 -0 -0 -0 -0 -0 -0 -0 -0 -0 -0 -0 -0 -0 -0 -0 -0 -0 -0 -0 -0 -0 -3 -9 -0 -0 -0 -0 -0
-0 -0 -0 -0 -0 -0 -0 -0 -0 -0 -0 -0 -0 -0 -0 -0 -0 -0 -0 -0 -0 -0 -7 -0 -0 -0 -9 -3 -0 -0 -0 -0
Wind_Speed
7 5 5 7 7 7 7 8 7 6 5 5 4 4 5 5 5 6 7 9 9 10 10 10 12 11 11 10 10 11 11 11
7 6 5 6 6 8 7 7 8 6 6 6 4 3 3 3 4 5 6 8 8 9 10 10 12 11 9 8 8 9 9 10
6 6 5 4 4 5 5 6 6 6 4 4 2 1 0 1 2 4 6 7 7 9 10 10 12 11 9 6 6 6 7 8
4 5 5 5 2 1 1 3 3 3 3 4 3 3 3 3 3 5 6 6 7 8 9 10 10 9 7 5 5 5 6 7
2 4 5 5 4 2 1 2 3 4 4 4 4 4 5 5 7 8 8 6 6 7 8 10 8 6 4 3 2 2 4 5
1 2 3 3 4 3 2 2 4 5 5 6 7 8 9 10 10 10 9 8 8 8 9 10 9 7 4 2 2 2 2 3
2 3 3 2 3 5 4 3 4 6 8 8 8 10 10 11 14 15 15 12 13 12 12 12 11 9 6 5 5 5 4 4
2 1 3 4 6 9 8 7 7 8 9 9 8 10 12 13 15 16 18 18 17 17 15 14 13 14 11 9 8 7 7 6
2 3 5 5 5 6 6 9 11 11 10 9 9 11 13 13 14 15 16 17 19 19 19 18 16 15 15 13 11 10 9 8
4 5 5 4 4 6 8 10 9 9 11 12 12 13 15 16 17 17 18 18 18 19 21 23 22 21 20 18 17 15 13 11
5 4 3 4 7 9 10 11 12 13 14 15 16 16 17 20 21 23 23 22 23 23 23 22 24 24 24 23 21 20 18 16
7 6 4 6 9 12 14 16 17 16 17 18 20 22 23 24 25 25 26 28 28 27 27 26 26 25 25 27 27 25 23 22
9 8 9 8 10 12 15 19 20 21 22 22 23 24 26 28 30 30 28 29 30 30 31 31 31 25 26 29 29 29 28 27
11 11 10 11 11 13 16 19 21 24 26 26 27 29 32 33 35 34 32 33 34 33 33 35 34 32 34 31 35 34 32 30
10 11 11 12 14 15 19 22 25 29 30 30 30 32 35 37 38 38 39 37 37 36 36 35 38 35 35 33 36 41 35 34
10 12 13 15 18 22 26 30 33 34 34 34 36 36 38 39 40 41 41 41 43 44 41 42 40 40 39 40 39 32 39 40
13 13 16 19 22 25 29 33 36 37 39 41 41 41 42 42 43 42 43 43 44 44 45 45 45 47 46 43 42 44 36 37
15 18 21 24 27 29 32 36 40 44 46 49 48 47 46 45 45 45 46 47 48 47 48 47 49 50 49 49 50 46 44 44
18 21 25 28 31 34 37 41 46 49 51 52 54 54 53 53 51 50 48 46 47 48 49 50 49 48 49 52 53 54 50 44
19 23 27 30 34 39 42 45 47 48 49 52 53 54 54 52 51 47 45 46 48 50 51 50 49 48 47 44 46 48 50 48
Wind_Direction
53 70 105 127 144 155 152 151 152 150 150 137 117 103 102 85 61 45 37 31 30 24 23 26 22 47 35 48 50 52 49 44
53 69 93 119 137 154 159 160 159 162 161 155 149 129 109 86 58 30 16 11 13 7 4 4 354 16 36 54 43 42 44 40
57 65 79 101 116 152 166 170 172 172 177 182 203 293 34 74 22 355 355 2 5 360 355 351 346 354 9 31 17 28 31 28
58 65 79 84 51 34 231 202 210 215 235 262 277 286 294 304 313 322 330 338 344 345 344 338 342 349 1 8 360 12 13 19
65 78 81 76 54 27 341 270 239 251 267 271 267 268 272 282 297 305 312 317 321 328 330 328 329 334 339 340 354 359 354 354
38 93 94 79 42 41 20 316 285 274 263 261 273 284 287 289 290 294 297 302 301 307 314 317 315 312 290 264 254 266 299 324
177 139 134 61 33 15 17 355 316 298 287 282 281 282 279 286 293 294 296 297 296 295 298 302 300 297 282 254 239 240 257 286
232 217 298 318 329 332 335 336 329 316 307 298 286 288 291 289 290 290 293 293 293 294 288 286 285 287 280 268 248 244 242 248
199 257 289 298 320 335 339 327 318 314 312 309 300 299 294 289 286 285 287 288 287 290 289 287 280 278 274 267 258 249 246 242
322 298 283 291 307 324 328 328 326 320 315 311 306 301 301 297 292 286 287 286 284 286 286 285 282 276 275 270 267 263 258 257
338 326 305 301 309 318 323 326 326 324 321 316 311 304 299 296 293 292 291 287 284 282 280 279 281 277 275 269 264 261 258 259
348 347 352 330 324 323 322 323 324 325 323 319 317 313 308 301 296 294 291 288 285 283 277 275 275 269 274 274 272 265 260 259
0 8 5 358 338 331 328 327 328 328 326 322 319 315 313 309 305 299 291 286 282 279 278 278 276 269 271 273 273 270 265 260
4 6 6 1 351 342 338 336 332 329 330 328 324 320 317 314 310 304 297 289 285 281 277 276 274 263 270 272 270 269 264 260
357 0 360 356 346 342 334 329 327 324 324 324 323 320 317 315 311 308 304 300 288 282 276 274 273 264 255 265 268 267 267 263
346 344 343 337 334 326 321 319 317 318 319 318 317 316 314 312 310 307 304 300 296 291 285 275 272 269 266 260 266 268 266 269
335 341 336 331 327 325 320 318 317 318 317 315 315 314 312 310 308 306 303 301 298 294 288 282 276 271 266 260 255 264 266 270
329 328 326 326 326 326 324 322 320 319 318 316 314 313 311 309 306 303 301 298 296 294 292 286 279 274 269 266 261 257 263 262
322 323 323 325 324 324 323 321 319 318 317 315 313 312 310 307 305 303 300 298 296 295 291 288 284 276 271 267 266 262 264 266
325 325 324 324 324 322 321 321 320 319 318 317 315 313 311 309 307 303 299 298 298 296 292 288 286 281 272 264 261 258 255 261